SKYTERRA 1

Last updated on Tue Oct 15 2024 00:02:39 GMT+0000 (Coordinated Universal Time)

1 37218U 10061A 24288.28079626 -.00000116 00000+0 00000+0 0 9990 2 37218 3.8479 49.2651 0004810 191.7370 142.1122 1.00270865 51066
UTC large
Height (km)
Speed (km/s)
/
Latitude / Longitude
Inclination (degrees)
Orbital Period (minutes)
Azimuth
Elevation
Range (km)
Doppler Factor

Next 0 passes for location: London (51.5072 / 0.1276)

Sorry there are no passes over London.